Torna al catalogo

GLOBALSTAR M085

AttivoComunicazioniLEO
NORAD 37742·PAYLOAD·🇺🇸 United States

Lanciato Jul 13, 2011 da Baikonur Cosmodrome

Loading…

Prossimi Passaggi (prossime 24 ore)

TLE

AggiornatoSource: Space-Track

Epoca: Sep 14, 2026, 12:45 UTC

1 37742U 11033D   26257.53169774 -.00000099  00000-0  25841-4 0  9998
2 37742  52.0120 281.2848 0000476 115.5902  48.9601 12.62265280701075

Traccia GLOBALSTAR M085 in tempo reale con AllMySat

Download on the App Store